Location: Capvern
(43.1036°N, 0.3160°E)
Time: 03:41:05
(UTC+00:00)

Cosmos 2150 Rocket - Pass Details

Date: 16 October 2021
Orbit: 750 x 807 km, 74.0° (Epoch: 02 December)

Event Time Altitude Azimuth Distance (km) Brightness Sun altitude
Rises 18:12:11 0° 200° (SSW) 3,306 7.6 -11.3°
Reaches altitude 10° 18:14:35 10° 201° (SSW) 2,377 6.8 -11.8°
Maximum altitude 18:20:01 85° 288° (WNW) 809 4.1 -12.8°
Drops below altitude 10° 18:25:27 10° 19° (NNE) 2,369 6.3 -13.8°
Sets 18:27:50 0° 20° (NNE) 3,294 7.1 -14.2°
